#timestamp,LO_Frequency,Hit,StdDev 
1629540015.5,286046997.8,N
1629540035.3,286046997.8,P
1629540055.1,286046999.2,N
1629540075.9,286046997.3,Y
1629540095.7,286046998.5,P
1629540115.5,286046998.4,P
1629540135.4,286046998.9,P
1629540155.2,286046996.9,Y
1629540175.1,286047001.2,P
1629540176.0,286047001.2,N
1629540195.8,286047000.7,N
1629540215.6,286047002.5,N
1629540235.5,286047001.5,N
1629540255.3,286047001.9,N
1629540275.1,286047001.8,N
1629540295.9,286047001.4,N
1629540315.7,286047002.2,N
1629540335.6,286047004.3,Y
1629540355.4,286047002.3,P
1629540375.2,286047002.0,P
1629540395.1,286047004.3,P
1629540396.0,286047004.3,Y
1629540415.8,286047001.1,P
1629540435.7,286046998.8,N
1629540455.5,286046999.0,N
1629540475.3,286046996.6,N
1629540495.2,286046998.3,N
1629540515.0,286046996.9,N
1629540515.9,286046996.9,N
1629540535.7,286046996.6,N
1629540555.6,286046997.8,N
1629540575.4,286046995.4,N
1629540595.3,286046997.1,N
1629540615.1,286046996.6,N
1629540616.0,286046996.6,N
1629540635.8,286047001.1,N
1629540655.7,286047000.7,N
1629540675.5,286046998.3,N
1629540695.3,286046997.0,N
1629540715.2,286046996.7,N
1629540735.0,286046996.5,N
1629540735.9,286046996.5,N
1629540755.8,286046999.4,N
1629540775.6,286046998.4,N
1629540795.4,286047000.6,N
1629540815.3,286046999.9,N
1629540835.1,286046998.1,N
1629540855.8,286046999.1,N
1629540875.7,286046999.0,N
1629540895.5,286046999.6,N
1629540915.4,286046996.8,N
1629540935.2,286046996.7,N
1629540955.0,286046997.0,N
1629540955.9,286046997.0,N
1629540975.8,286046997.1,N
1629540995.6,286046997.7,N
1629541015.5,286046997.8,N
1629541035.3,286046997.9,N
1629541055.1,286046997.0,N
1629541075.9,286046997.0,N
1629541095.7,286046997.4,N
1629541115.5,286046997.0,N
1629541135.4,286046999.2,N
1629541155.2,286046996.9,N
1629541175.1,286046999.5,N
1629541176.0,286046999.5,N
1629541195.8,286047011.9,Y
1629541215.6,286047002.3,P
1629541235.5,286047002.4,N
1629541255.3,286047002.0,N
1629541275.2,286047001.5,N
1629541295.9,286047003.9,N
1629541315.7,286047005.9,Y
1629541335.6,286047001.4,P
1629541355.4,286047001.6,P
1629541375.2,286047002.1,P
1629541395.1,286047001.7,Y
1629541396.0,286047001.7,P
1629541415.8,286047000.2,P
1629541435.7,286047002.5,P
1629541455.5,286047004.0,Y
1629541475.3,286047000.3,P
1629541495.2,286047000.7,N
1629541515.0,286047000.3,N
1629541515.9,286047000.3,N
1629541535.8,286047000.0,N
1629541555.6,286047002.1,Y
1629541575.4,286047002.7,P
1629541595.3,286047000.7,N
1629541615.1,286047000.7,N
1629541635.8,286047000.1,N
1629541655.7,286046998.8,N
1629541675.5,286046998.9,N
1629541695.4,286046997.0,N
1629541715.2,286046996.9,N
1629541735.0,286046997.3,N
1629541735.9,286046997.3,N
1629541755.8,286046999.3,N
1629541775.6,286046999.0,N
1629541795.4,286047000.8,N
1629541815.3,286046999.8,N
1629541835.1,286047000.2,N
1629541855.9,286047001.0,N
1629541875.7,286046999.7,N
1629541895.5,286046999.8,N
1629541915.4,286047000.9,N
1629541935.2,286047000.2,N
1629541955.0,286046999.8,N
1629541956.0,286046999.8,N
1629541975.8,286047000.3,N
1629541995.6,286046998.6,N
1629542015.5,286046999.4,N
1629542035.3,286046996.5,N
1629542055.1,286046997.1,N
1629542075.9,286046996.7,N
1629542095.7,286046999.2,N
1629542115.6,286046999.3,N
1629542135.4,286046999.0,N
1629542155.2,286046997.1,N
1629542175.1,286046999.5,N
1629542176.0,286046999.5,N
1629542195.8,286046997.1,N
1629542215.6,286046996.7,N
1629542235.5,286046996.9,N
1629542255.3,286046998.4,N
1629542275.2,286046999.4,N
1629542295.9,286046998.3,N
1629542315.7,286046998.3,N
1629542335.6,286047001.0,N
1629542355.4,286047002.3,N
1629542375.3,286047002.6,N
1629542395.1,286047002.6,N
1629542396.0,286047002.6,N
1629542415.8,286047002.2,N
1629542435.7,286047000.3,N
1629542455.5,286047001.2,N
1629542475.3,286046998.1,N
1629542495.2,286046999.4,N
1629542515.0,286046999.2,N
1629542515.9,286046999.2,N
1629542535.8,286046997.8,N
1629542555.6,286046997.7,N
1629542575.4,286046997.8,N
1629542595.3,286046995.5,N
1629542615.1,286046995.3,N
1629542635.9,286046995.4,N
1629542655.7,286046995.0,N
1629542675.5,286046995.5,N
1629542695.4,286046996.9,N
1629542715.2,286046997.1,N
1629542735.0,286046997.0,N
1629542736.0,286046997.0,N
1629542755.8,286046997.2,N
1629542775.6,286046999.6,N
1629542795.5,286046999.1,N
1629542815.3,286046999.0,N
1629542835.1,286046996.5,N
1629542855.9,286046997.6,N
1629542875.7,286046995.0,N
1629542895.6,286046996.1,N
1629542915.4,286046995.2,N
1629542935.2,286046996.2,N
1629542955.1,286046995.3,N
1629542956.0,286046995.3,N
1629542975.8,286046995.2,N
1629542995.6,286046995.5,N
1629543015.5,286046995.2,Y
1629543035.3,286046998.2,P
1629543055.2,286047000.5,N
1629543075.0,286047001.0,N
1629543075.9,286047001.0,N
1629543095.8,286046999.7,N
1629543115.6,286047002.1,N
1629543135.4,286047001.6,N
1629543155.3,286047001.5,N
1629543175.1,286047002.2,N
1629543195.8,286047002.4,N
1629543215.7,286047002.3,N
1629543235.5,286047001.7,N
1629543255.4,286047003.7,N
1629543275.2,286047001.3,N
1629543295.1,286047003.2,N
1629543296.0,286047003.2,N
1629543315.8,286047003.1,N
1629543335.6,286047003.6,N
1629543355.5,286047003.2,N
1629543375.3,286047005.6,Y
1629543395.1,286047004.0,P
1629543415.9,286047003.2,N
1629543435.7,286047003.9,P
1629543455.6,286047003.0,Y
1629543475.4,286047000.3,P
1629543495.2,286046999.9,N
1629543515.1,286047000.8,N
1629543516.0,286047000.8,N
1629543535.8,286046998.7,N
1629543555.7,286046999.6,N
1629543575.5,286046999.0,N
1629543595.4,286047001.1,N
